Location: Solon
(41.3849°N, 81.4081°W)
Time: 00:19:40
(UTC-04:00)

Daily predictions for brighter satellites

Satellite Brightness Start Highest point End
(mag) Time Altitude Azimuth Time Altitude Azimuth Time Altitude Azimuth
Cosmos 2285 Rocket 4.2 00:08:10 63° W 00:08:44 66° WNW 00:15:06 10° NNE
Cosmos 1943 Rocket 4.3 00:06:23 10° N 00:09:43 16° NE 00:10:59 15° ENE
Cosmos 2369 Rocket 3.7 00:05:32 10° N 00:10:14 26° NE 00:10:16 26° NE
Terra 3.3 00:11:24 30° WNW 00:11:24 30° WNW 00:14:43 10° NNW
Cosmos 2297 4.4 00:09:57 10° NW 00:14:31 45° WNW 00:14:31 45° WNW
Cosmos 1763 Rocket 4.4 00:21:13 46° NW 00:21:13 46° NW 00:25:46 10° N
ATLAS 2AS CENTAUR R/B 3.0 00:26:52 66° WSW 00:28:08 81° NW 00:36:19 10° NNE
Cosmos 1125 Rocket 4.4 00:29:49 10° NNW 00:33:36 47° NNW 00:33:36 47° NNW
SL-16 R/B 3.3 00:35:09 37° WNW 00:35:42 38° WNW 00:41:00 10° N
ATLAS CENTAUR R/B 4.0 00:48:56 17° NW 00:48:56 17° NW 00:51:34 10° N
CZ-2C R/B 3.6 00:44:54 10° NNE 00:48:44 45° NNE 00:48:44 45° NNE
ATLAS 3B R/B 2.8 00:44:37 10° NW 00:50:28 67° NW 00:50:28 67° NW
Nadezhda 1 Rocket 4.3 00:55:11 62° NNE 00:55:11 62° NNE 01:00:21 10° N
CZ-2C R/B 4.3 01:11:21 35° NNW 01:11:21 35° NNW 01:14:15 10° NNW
USA 238 DEB 3.9 01:13:40 10° NW 01:19:40 64° WNW 01:19:40 64° WNW
USA 238 3.9 01:13:46 10° NW 01:19:47 64° WNW 01:19:47 64° WNW
Cosmos 1943 4.0 01:28:38 48° NNE 01:28:38 48° NNE 01:32:40 10° NNE
CENTAUR R/B 4.4 01:38:35 10° NNW 01:45:30 34° NE 01:52:52 10° ESE
Cosmos 2341 Rocket 4.4 01:41:23 10° N 01:46:27 59° NNW 01:46:27 59° NNW
NOSS 3-2 (C) 4.0 01:45:28 10° NNW 01:53:01 76° NE 01:53:54 69° ESE
Cosmos 1943 Rocket 3.0 01:48:35 10° NNW 01:52:29 46° NNW 01:52:29 46° NNW
Cosmos 2369 Rocket 3.6 01:49:06 10° NW 01:52:03 29° NW 01:52:03 29° NW
COSMOS 2455 3.4 01:55:18 10° NNW 02:01:00 54° NE 02:01:00 54° NE
NOSS 3-4 (A) 3.6 02:19:28 70° NNW 02:19:28 70° NNW 02:25:31 10° NNE
NOSS 3-4 (C) 3.6 02:19:35 71° NNW 02:19:35 71° NNW 02:25:37 10° NNE
Cosmos 1656 Rocket 4.2 02:20:46 10° NNW 02:24:53 52° N 02:24:53 52° N
NOSS 3-2 (A) 4.3 02:23:08 10° NW 02:29:25 52° W 02:29:25 52° W
Cosmos 2366 rocket 4.2 02:31:40 10° NNW 02:37:06 61° NW 02:37:06 61° NW
COSMOS 2406 3.5 02:39:49 65° NE 02:39:49 65° NE 02:44:49 10° NNE
Lacrosse 5 rocket 3.0 02:42:58 35° NE 02:42:58 35° NE 02:45:43 10° NE
Cosmos 2218 Rocket 4.4 02:35:10 10° NNW 02:40:11 50° WNW 02:40:11 50° WNW
Resurs 1-4 Rocket 4.1 02:41:13 10° NE 02:44:46 18° E 02:45:44 17° ESE
Meteor 1-22 Rocket 4.5 02:54:55 10° NNW 02:59:20 57° NW 02:59:20 57° NW
SL-16 R/B 3.7 02:57:09 19° ESE 03:01:00 38° ENE 03:06:36 10° N
NPP 3.7 03:04:35 10° NNE 03:09:58 72° E 03:09:58 72° E
Cosmos 1818 3.6 03:12:23 74° E 03:12:23 74° E 03:17:34 10° NE
CZ-2D R/B 3.4 03:07:55 10° NE 03:12:35 31° E 03:13:40 29° ESE
USA 215 3.2 03:11:00 10° NE 03:17:33 81° NW 03:18:51 60° WSW
RESURS DK-1 4.1 03:18:49 26° NNW 03:18:49 26° NNW 03:21:22 10° N
Meteor 2-8 Rocket 4.3 03:21:47 73° SW 03:22:19 79° W 03:28:30 10° N
ADEOS Rocket 3.9 03:17:46 10° NNE 03:23:50 47° E 03:26:34 32° SSE
Cosmos 1953 Rocket 4.0 03:26:21 61° ENE 03:26:21 61° ENE 03:30:26 10° NNE
DNEPR-1 R/B 4.0 03:23:23 10° NNW 03:27:33 56° NE 03:27:50 55° ENE
Nadezhda 3 Rocket 4.1 03:27:40 56° W 03:28:08 57° W 03:34:24 10° N
Cosmos 1624 Rocket 4.2 03:23:31 10° NNW 03:27:57 59° WNW 03:27:57 59° WNW
NOSS 2-2 (E) 4.0 03:31:22 55° NNW 03:31:22 55° NNW 03:35:34 10° NNE
CENTAUR R/B 3.0 03:28:59 10° NW 03:36:55 74° WSW 03:45:18 10° SSE
SL-08 R/B 3.6 03:37:44 54° WNW 03:37:44 54° WNW 03:41:44 10° NNW
Cosmos 2278 4.3 03:32:55 10° NNW 03:38:34 56° ENE 03:44:09 10° SE
Cosmos 1953 3.1 03:38:13 10° N 03:41:09 46° NNW 03:41:09 46° NNW
Cosmos 2056 Rocket 3.8 03:37:54 10° NNW 03:42:22 50° WNW 03:42:22 50° WNW
IRS-1C 4.0 03:38:36 10° NNE 03:43:57 80° WNW 03:44:39 67° SW
Cosmos 1825 Rocket 4.0 03:45:47 50° NW 03:45:47 50° NW 03:49:29 10° N
Cosmos 2369 4.0 03:42:22 10° NNW 03:48:06 65° ENE 03:53:46 10° SE
Cosmos 1271 Rocket 4.3 03:45:01 10° NNW 03:46:51 26° NNW 03:46:51 26° NNW
Spot 4 Rocket 4.0 03:44:03 10° NNE 03:49:15 81° ESE 03:50:16 58° S
USA 267 3.8 03:43:15 10° ESE 03:49:39 60° NE 03:56:03 10° NW
CBERS-1 4.2 03:46:33 10° N 03:51:30 52° WNW 03:51:52 51° W
Cosmos 389 Rocket 3.1 03:48:06 10° N 03:51:14 56° NE 03:51:14 56° NE
Cosmos 1833 Rocket 3.6 03:49:56 29° SSE 03:52:04 41° ESE 03:57:19 10° NE
Cosmos 2098 Rocket 3.9 03:50:00 10° N 03:51:46 30° NNE 03:51:46 30° NNE
USA 32 3.9 03:52:35 63° SW 03:53:15 72° W 03:58:30 10° N
Cosmos 1727 Rocket 4.1 03:53:14 33° SSE 03:56:06 69° E 04:02:14 10° NNE
Cosmos 1980 Rocket 4.4 03:52:37 10° N 03:57:16 25° NE 04:01:53 10° ESE
Cosmos 2082 Rocket 2.7 03:59:28 34° SSE 04:01:41 56° ESE 04:07:15 10° NNE
UNK 3.6 04:06:29 61° SW 04:06:58 66° WSW 04:11:32 10° NNW
USA 161 3.7 04:08:21 20° ESE 04:09:25 25° ENE 04:11:45 10° NNE
Cosmos 1821 Rocket 4.4 04:04:12 10° NNW 04:09:48 39° W 04:10:40 37° WSW
IRS-1D 3.5 04:06:56 10° N 04:12:11 72° WNW 04:13:52 44° SW
Cosmos 1378 3.5 04:12:17 47° SE 04:13:02 59° E 04:16:43 10° NNE
ARIANE 5 R/B 2.5 04:07:55 10° N 04:13:10 76° WNW 04:14:51 44° SSW
Cosmos 1452 Rocket 3.4 04:12:25 10° NNW 04:17:39 66° WSW 04:20:11 30° S
Cosmos-2242 3.0 04:14:54 10° NNW 04:19:15 63° W 04:20:02 52° SW
Lacrosse 5 rocket 3.4 04:18:39 18° WNW 04:20:47 24° NNW 04:24:35 10° NNE
Resurs 1-4 Rocket 2.3 04:19:47 10° N 04:24:56 57° WNW 04:26:49 37° SW
Okean O Rocket 4.0 04:21:57 10° NE 04:25:14 20° E 04:28:28 10° SE
ADEOS 3.8 04:22:17 10° N 04:27:23 55° WNW 04:29:17 35° SW
Cosmos 1420 Rocket 3.9 04:24:08 10° NNW 04:29:28 80° WSW 04:34:44 10° SSE
Abrixas 4.2 04:28:45 18° NNW 04:30:14 30° NNE 04:32:46 10° E
Meteor 2-5 Rocket 3.7 04:27:39 28° SSW 04:30:50 81° W 04:36:44 10° N
Cosmos 1605 Rocket 4.2 04:24:56 10° NNW 04:30:51 50° W 04:33:47 28° SSW
Cosmos 1707 2.9 04:30:56 47° WSW 04:31:23 49° W 04:35:10 10° N
Cosmos 468 4.5 04:30:10 36° SW 04:32:16 67° WNW 04:37:31 10° NNE
Meteor 1-16 Rocket 4.0 04:27:05 10° N 04:32:27 86° W 04:37:31 11° S
Cosmos 1339 Rocket 4.5 04:31:17 29° SSW 04:34:27 63° W 04:40:33 10° N
Cosmos 1048 Rocket 3.9 04:32:16 30° SSW 04:34:52 89° ESE 04:40:01 10° NNE
Cosmos 2221 4.1 04:35:03 10° N 04:38:59 35° ENE 04:42:53 10° SE
Cosmos 1842 Rocket 3.5 04:36:14 10° N 04:40:41 85° W 04:44:32 14° S
CZ-2D R/B 3.2 04:36:54 10° N 04:40:55 80° WNW 04:42:43 32° SSW
COSMOS 2487 3.7 04:41:42 27° WNW 04:41:59 27° WNW 04:45:05 10° N
SL-16 R/B 3.1 04:42:14 26° SW 04:44:36 34° W 04:50:10 10° NNW
GPS 2-05 Rocket1 3.7 04:47:05 31° S 04:47:20 32° S 04:50:31 10° ESE
Cosmos 972 Rocket 4.4 04:41:30 10° NNW 04:47:49 81° ENE 04:53:22 10° SSE
Cosmos 1470 4.2 04:48:02 10° NW 04:50:50 21° W 04:50:50 21° W
EXPRESS MD2 3.2 04:45:29 10° WNW 04:51:07 65° SW 04:54:04 10° SE
CZ-2D R/B 3.0 04:47:57 10° N 04:52:37 33° WNW 04:55:00 22° WSW
NOSS 8 (E) 4.4 04:53:14 32° SW 04:54:44 88° NW 04:58:28 10° NE
Cosmos 1000 Rocket 4.4 04:51:41 11° S 04:57:41 85° W 05:03:57 10° N
Timation 2 Rocket 4.1 04:53:39 18° SSW 04:58:46 84° WNW 05:05:12 10° NNE
Cosmos 1269 Rocket 4.2 04:56:58 22° SW 05:00:14 56° WNW 05:05:27 10° NNE
Cosmos 1697 Rocket 2.7 05:00:01 10° NNW 05:05:32 60° WSW 05:11:01 10° S
Cosmos 2173 Rocket 3.9 04:59:40 10° NNW 05:05:54 69° W 05:12:00 10° S
CZ-4B R/B 3.7 05:01:50 10° NNE 05:06:11 57° E 05:10:38 10° S
Cosmos 158 Rocket 4.2 05:03:17 20° SW 05:06:35 53° WNW 05:11:41 10° N
Cosmos 2100 Rocket 4.0 05:00:48 10° NNW 05:06:53 62° W 05:12:54 10° S
ADEOS Rocket 4.1 05:03:47 10° N 05:09:08 31° WNW 05:13:32 16° WSW
UNKNOWN OBJECT B 3.9 05:07:16 10° N 05:10:47 29° WNW 05:12:49 19° WSW
Gbstr 26 Del rocket 4.3 05:05:46 10° NW 05:13:41 86° NE 05:20:21 10° SE
Meteor 1-24 Rocket 3.9 05:08:58 14° SSW 05:13:44 57° WNW 05:19:24 10° N
GENESIS II 4.4 05:13:07 10° NW 05:16:57 49° WSW 05:20:42 10° SSE
Cosmos 1656 4.4 05:16:08 10° NW 05:20:48 30° WSW 05:25:27 10° SSW
ADEOS II 2.2 05:16:28 10° NNE 05:21:45 78° ESE 05:27:00 10° S
GEOS 3 Rocket 4.4 05:17:11 10° NNE 05:22:07 42° NW 05:26:33 13° WSW
Cosmos 2251 Rocket 3.8 05:18:08 10° S 05:23:23 71° ESE 05:28:42 10° NNE
Orbus 7S? 3.6 05:23:16 10° WNW 05:25:45 24° SW 05:27:57 10° S
CENTAUR R/B 4.4 05:22:13 10° WNW 05:26:37 16° WSW 05:31:06 10° SW
Cosmos 1674 2.9 05:25:33 10° S 05:29:19 73° E 05:33:09 10° NNE
USA 267 3.6 05:26:41 10° SSE 05:32:46 41° SW 05:38:54 10° WNW
Cosmos 1076 Rocket 3.4 05:29:48 10° S 05:34:02 78° W 05:38:18 10° N
Cosmos 2322 Rocket 3.3 05:28:57 10° NNW 05:34:30 51° ENE 05:40:01 10° SE
Cosmos 494 Rocket 3.9 05:30:00 10° SSW 05:35:06 85° WNW 05:40:15 10° NNE
Cosmos 1833 Rocket 3.8 05:31:38 12° WSW 05:36:06 29° NW 05:40:58 10° N
MOS 1 Rocket 4.2 05:32:19 10° N 05:36:07 29° WNW 05:40:04 10° SW
USA 161 3.6 05:38:59 11° W 05:39:17 11° W 05:40:04 10° WNW
Cosmos 1980 Rocket 2.4 05:36:04 10° NNW 05:41:34 51° WSW 05:47:00 10° S
PSLV R/B 4.4 05:38:42 10° N 05:42:38 43° WNW 05:46:33 10° SW
Okean 3 Rocket 4.1 05:39:51 10° SSW 05:44:00 41° WNW 05:48:13 10° N
Cosmos 2016 Rocket 4.3 05:38:39 10° NNW 05:44:38 48° W 05:50:39 10° SSW
EO 1 Del DPAF 3.2 05:40:59 10° S 05:44:50 81° W 05:48:43 10° NNW
Okean-O 4.1 05:41:57 10° NNE 05:46:07 39° E 05:50:16 10° SSE
Cosmos 2082 Rocket 3.6 05:41:37 10° WSW 05:46:08 24° NW 05:50:40 10° N
Cosmos 2123 Rocket 4.1 05:41:45 10° SSW 05:47:59 62° W 05:54:12 10° N
Cosmos 1766 Rocket 3.6 05:47:13 10° SSW 05:51:40 73° W 05:56:09 10° N
Cosmos 1356 Rocket 4.3 05:48:27 10° S 05:52:22 51° E 05:56:17 10° NNE
Aureole 2 4.0 05:49:55 10° NNW 05:52:51 65° WSW 05:55:58 10° S
CZ-4B R/B 3.2 05:51:14 10° N 05:56:31 63° WNW 06:01:43 10° SSW
USA 229 DEB 4.0 05:52:37 10° NW 05:59:49 86° NE 06:07:07 10° SE
